Location: Kailua
(21.4020°N, 157.7390°W)
Time: 01:46:17
(UTC-10:00)

Cosmos 2221 Rocket - Visible Passes

Search period start: 04 July 2015 00:00
Search period end: 14 July 2015 00:00
Orbit: 621 x 649 km, 82.5° (Epoch: 03 July)

Date Brightness Start Highest point End Pass type
(mag) Time Alt. Az. Time Alt. Az. Time Alt. Az.
04 Jul 4.8 21:48:13 10° NNW 21:51:41 40° WNW 21:51:41 40° WNW visible
05 Jul 4.9 20:33:17 10° NNE 20:36:45 22° E 20:36:50 22° E visible
05 Jul 6.0 22:11:39 10° NW 22:14:20 18° W 22:14:20 18° W visible
06 Jul 3.7 20:54:48 10° N 20:59:14 54° E 20:59:30 54° E visible
07 Jul 4.1 21:17:07 10° NNW 21:21:35 58° W 21:22:14 52° SW visible
08 Jul 5.2 20:02:44 10° NE 20:05:43 18° E 20:07:28 15° ESE visible
08 Jul 5.6 21:40:14 10° NW 21:43:53 23° W 21:45:00 21° WSW visible
09 Jul 4.1 20:23:57 10° NNE 20:28:14 42° E 20:30:17 26° SE visible
10 Jul 3.7 20:46:05 10° N 20:50:37 76° W 20:53:07 26° S visible
11 Jul 5.4 21:08:56 10° NNW 21:12:55 30° W 21:16:01 14° SW visible
12 Jul 4.4 19:53:08 10° NNE 19:57:14 33° E 20:01:21 10° SSE visible
12 Jul 6.5 21:33:14 10° WNW 21:35:12 12° W 21:36:53 10° WSW visible
13 Jul 3.6 20:15:04 10° N 20:19:38 84° E 20:24:12 10° S visible
